sat.trackr.live / text

‹ back to catalog

STARLINK-4208

NORAD 52844 · 2022-062Q

PAYLOAD ACTIVE UNKNOWN

§ Identity

Operator
Country
US
Launch date
2022-06-17
Launch site
AFETR
Launch vehicle
Mass (kg)
RCS (m²)

Purposes: comms

External: N2YO · Heavens-Above · Gunter

§ Orbital elements

Epoch: 2026-05-25T04:14:03.163200Z

Period
95.44 min
Inclination
53.2127°
Eccentricity
0.0001189
Mean motion
15.08851294 rev/d
Perigee alt
538.9 km
Apogee alt
540.5 km
Semi-major
6,917.8 km
B*
-9.3831e-5
RAAN
50.7578°
Arg perigee
99.4934°
Mean anomaly
260.6192°
Rev number
21,733

§ Raw data

STARLINK-42081 52844U 22062Q   26145.17642550 -.00001781  00000+0 -93831-4 0  99992 52844  53.2127  50.7578 0001189  99.4934 260.6192 15.08851294217339

JSON: /api/v1/satellites/52844 · /tle

For live sub-satellite position, see the globe view (requires WebGL).

§ Visibility from observer

Set your observer location to see the next 7 days of passes ≥ 10°. The values pass through the URL so the page stays shareable.

No JS? Fill the form by hand. The geolocation button needs JavaScript.